When you browse on this site, cookies collect data to enhance your experience and personalize the content and advertising you see.
Visit our Privacy Policy to learn more. By continuing to use the site, you agree to this use of cookies and data.
  • In Hungary
  • List of Countries
  • For 7 days
  • Water Temperature
  • Satellite Maps
  • Weather Map
  • News
  • Weather Widgets
  • user-avatar
    Login

    Hourly Weather Skagen

    Today, 16 January, Wednesday

    Time Temperature Precipitation Wind Pressure Humidity
    00:00 +2°C° 0 mm 9 mps 748 mmHg 85%
    01:00 +2°C° 0 mm 8 mps 748 mmHg 87%
    02:00 +3°C° 0.3 mm 7 mps 748 mmHg 90%
    03:00 +2°C° 0.3 mm 6 mps 747 mmHg 93%
    04:00 +2°C° 0.3 mm 5 mps 747 mmHg 95%
    05:00 +3°C° 0.7 mm 6 mps 746 mmHg 94%
    06:00 +4°C° 0.7 mm 7 mps 745 mmHg 92%
    07:00 +4°C° 0.7 mm 8 mps 745 mmHg 91%
    08:00 +3°C° 0.6 mm 10 mps 744 mmHg 90%
    09:00 +4°C° 0.6 mm 11 mps 744 mmHg 89%
    10:00 +4°C° 0.6 mm 12 mps 743 mmHg 88%
    11:00 +4°C° 0.2 mm 12 mps 743 mmHg 88%
    12:00 +4°C° 0.2 mm 12 mps 742 mmHg 88%
    13:00 +4°C° 0.2 mm 11 mps 742 mmHg 88%
    14:00 +4°C° 0.1 mm 11 mps 741 mmHg 87%
    15:00 +4°C° 0.1 mm 11 mps 741 mmHg 87%
    16:00 +4°C° 0.1 mm 11 mps 741 mmHg 86%
    17:00 +4°C° 0.2 mm 11 mps 740 mmHg 86%
    18:00 +5°C° 0.2 mm 10 mps 739 mmHg 86%
    19:00 +5°C° 0.2 mm 10 mps 738 mmHg 86%
    20:00 +4°C° 0.7 mm 11 mps 737 mmHg 87%
    21:00 +4°C° 0.7 mm 11 mps 737 mmHg 88%
    22:00 +3°C° 0.7 mm 11 mps 736 mmHg 89%
    23:00 +3°C° 0.2 mm 9 mps 735 mmHg 88%

    Tomorrow, 17 January, Thursday

    Time Temperature Precipitation Wind Pressure Humidity
    00:00 +4°C° 0.2 mm 8 mps 735 mmHg 88%
    01:00 +3°C° 0.2 mm 7 mps 734 mmHg 87%
    02:00 +1°C° 0.3 mm 8 mps 734 mmHg 87%
    03:00 0°C° 0.3 mm 9 mps 734 mmHg 87%
    04:00 -2°C° 0.3 mm 11 mps 734 mmHg 87%
    05:00 -2°C° 0 mm 10 mps 735 mmHg 83%
    06:00 -1°C° 0 mm 9 mps 736 mmHg 79%
    07:00 -3°C° 0 mm 9 mps 737 mmHg 75%
    08:00 -2°C° 0.2 mm 8 mps 737 mmHg 72%
    09:00 -2°C° 0.2 mm 8 mps 737 mmHg 69%
    10:00 -2°C° 0.2 mm 7 mps 738 mmHg 65%
    11:00 -3°C° 0.4 mm 9 mps 738 mmHg 72%
    12:00 -4°C° 0.4 mm 10 mps 739 mmHg 78%
    13:00 -5°C° 0.4 mm 12 mps 739 mmHg 84%
    14:00 -5°C° 0.4 mm 13 mps 740 mmHg 81%
    15:00 -5°C° 0.4 mm 13 mps 742 mmHg 79%
    16:00 -5°C° 0.4 mm 14 mps 743 mmHg 77%
    17:00 -5°C° 0 mm 14 mps 744 mmHg 72%
    18:00 -5°C° 0 mm 13 mps 746 mmHg 67%
    19:00 -5°C° 0 mm 13 mps 747 mmHg 62%
    20:00 -5°C° 0 mm 12 mps 749 mmHg 60%
    21:00 -4°C° 0 mm 11 mps 750 mmHg 58%
    22:00 -4°C° 0 mm 10 mps 751 mmHg 56%
    23:00 -4°C° 0 mm 9 mps 751 mmHg 54%

    Day after tomorrow, 18 January, Friday

    Time Temperature Precipitation Wind Pressure Humidity
    00:00 -4°C° 0 mm 8 mps 752 mmHg 53%
    01:00 -3°C° 0 mm 7 mps 753 mmHg 51%
    02:00 -3°C° 0 mm 7 mps 753 mmHg 52%
    03:00 -2°C° 0 mm 7 mps 754 mmHg 52%
    04:00 -2°C° 0 mm 6 mps 754 mmHg 52%
    05:00 -1°C° 0 mm 5 mps 755 mmHg 57%
    06:00 -2°C° 0 mm 4 mps 755 mmHg 61%
    07:00 -1°C° 0 mm 2 mps 755 mmHg 65%
    08:00 -1°C° 0 mm 2 mps 756 mmHg 65%
    09:00 +1°C° 0 mm 2 mps 756 mmHg 66%
    10:00 +1°C° 0 mm 2 mps 756 mmHg 66%
    11:00 +1°C° 0 mm 2 mps 757 mmHg 63%
    12:00 +1°C° 0 mm 3 mps 757 mmHg 59%
    13:00 0°C° 0 mm 4 mps 757 mmHg 56%
    14:00 0°C° 0 mm 4 mps 757 mmHg 57%
    15:00 0°C° 0 mm 5 mps 757 mmHg 58%
    16:00 -1°C° 0 mm 5 mps 757 mmHg 59%
    17:00 -1°C° 0 mm 4 mps 758 mmHg 60%
    18:00 -1°C° 0 mm 4 mps 758 mmHg 60%
    19:00 -1°C° 0 mm 3 mps 759 mmHg 61%
    20:00 -1°C° 0 mm 3 mps 759 mmHg 62%
    21:00 -2°C° 0 mm 4 mps 759 mmHg 62%
    22:00 -2°C° 0 mm 4 mps 760 mmHg 63%
    23:00 -2°C° 0 mm 4 mps 760 mmHg 63%

    19 January, Saturday

    Time Temperature Precipitation Wind Pressure Humidity
    00:00 -2°C° 0 mm 4 mps 760 mmHg 63%
    01:00 -2°C° 0 mm 5 mps 760 mmHg 62%
    02:00 -2°C° 0 mm 5 mps 760 mmHg 63%
    03:00 -2°C° 0 mm 5 mps 760 mmHg 63%
    04:00 -3°C° 0 mm 6 mps 760 mmHg 63%
    05:00 -3°C° 0 mm 6 mps 760 mmHg 67%
    06:00 -2°C° 0 mm 6 mps 760 mmHg 70%
    07:00 -2°C° 0 mm 6 mps 760 mmHg 74%
    08:00 -1°C° 0 mm 5 mps 761 mmHg 74%
    09:00 -1°C° 0 mm 5 mps 761 mmHg 73%
    10:00 -1°C° 0 mm 4 mps 761 mmHg 73%
    11:00 -1°C° 0 mm 4 mps 762 mmHg 71%
    12:00 -1°C° 0 mm 4 mps 762 mmHg 69%
    13:00 0°C° 0 mm 4 mps 762 mmHg 67%
    14:00 -1°C° 0 mm 4 mps 762 mmHg 69%
    15:00 -1°C° 0 mm 3 mps 762 mmHg 71%
    16:00 -1°C° 0 mm 3 mps 762 mmHg 72%
    17:00 -2°C° 0 mm 3 mps 763 mmHg 72%
    18:00 -2°C° 0 mm 2 mps 763 mmHg 73%
    19:00 -2°C° 0 mm 2 mps 764 mmHg 73%
    20:00 -2°C° 0 mm 2 mps 764 mmHg 74%
    21:00 -2°C° 0 mm 2 mps 764 mmHg 75%
    22:00 -2°C° 0 mm 2 mps 764 mmHg 75%
    23:00 -2°C° 0 mm 2 mps 764 mmHg 75%

    20 January, Sunday

    Time Temperature Precipitation Wind Pressure Humidity
    00:00 -2°C° 0 mm 3 mps 765 mmHg 75%
    01:00 -2°C° 0 mm 3 mps 765 mmHg 75%
    02:00 -3°C° 0 mm 4 mps 765 mmHg 75%
    03:00 -3°C° 0 mm 4 mps 765 mmHg 75%
    04:00 -3°C° 0 mm 4 mps 766 mmHg 75%
    05:00 -3°C° 0 mm 4 mps 766 mmHg 76%
    06:00 -3°C° 0 mm 4 mps 766 mmHg 77%
    07:00 -2°C° 0 mm 4 mps 767 mmHg 77%
    08:00 -1°C° 0 mm 3 mps 767 mmHg 77%
    09:00 -1°C° 0 mm 3 mps 768 mmHg 76%
    10:00 -1°C° 0 mm 2 mps 768 mmHg 76%
    11:00 -1°C° 0 mm 2 mps 768 mmHg 74%
    12:00 +2°C° 0 mm 1 mps 768 mmHg 73%
    13:00 +2°C° 0 mm 1 mps 769 mmHg 71%
    14:00 +2°C° 0 mm 1 mps 769 mmHg 74%
    15:00 -1°C° 0 mm 2 mps 769 mmHg 77%
    16:00 -1°C° 0 mm 2 mps 769 mmHg 80%
    17:00 -1°C° 0 mm 3 mps 769 mmHg 81%
    18:00 -2°C° 0 mm 4 mps 769 mmHg 81%
    19:00 -2°C° 0 mm 4 mps 769 mmHg 82%
    20:00 -2°C° 0 mm 5 mps 769 mmHg 81%
    21:00 -3°C° 0 mm 6 mps 769 mmHg 80%
    22:00 -3°C° 0 mm 6 mps 769 mmHg 79%
    23:00 -2°C° 0 mm 7 mps 769 mmHg 79%

    21 January, Monday

    Time Temperature Precipitation Wind Pressure Humidity
    00:00 -2°C° 0 mm 7 mps 769 mmHg 80%
    01:00 -2°C° 0 mm 7 mps 769 mmHg 81%
    02:00 -2°C° 0 mm 8 mps 769 mmHg 81%
    03:00 -1°C° 0 mm 8 mps 768 mmHg 81%
    04:00 -1°C° 0 mm 9 mps 768 mmHg 80%
    05:00 -1°C° 0 mm 9 mps 768 mmHg 81%
    06:00 -1°C° 0 mm 9 mps 768 mmHg 81%
    07:00 -1°C° 0 mm 9 mps 767 mmHg 81%
    08:00 -1°C° 0 mm 9 mps 767 mmHg 81%
    09:00 -2°C° 0 mm 10 mps 767 mmHg 82%
    10:00 -2°C° 0 mm 10 mps 767 mmHg 83%
    11:00 0°C° 0 mm 10 mps 767 mmHg 81%
    12:00 0°C° 0 mm 9 mps 767 mmHg 80%
    13:00 0°C° 0 mm 9 mps 767 mmHg 78%
    14:00 0°C° 0 mm 9 mps 766 mmHg 80%
    15:00 -1°C° 0 mm 8 mps 766 mmHg 81%
    16:00 -1°C° 0 mm 8 mps 766 mmHg 83%
    17:00 -2°C° 0 mm 8 mps 766 mmHg 84%
    18:00 -2°C° 0 mm 8 mps 765 mmHg 84%
    19:00 -3°C° 0 mm 7 mps 765 mmHg 84%
    20:00 -3°C° 0 mm 7 mps 765 mmHg 82%
    21:00 -4°C° 0 mm 7 mps 764 mmHg 79%
    22:00 -5°C° 0 mm 8 mps 764 mmHg 76%
    23:00 -5°C° 0 mm 8 mps 763 mmHg 71%
    Show more